Live Position
Loading 3D Globe...
About Starlink 4388
Group: 3 satellites
Description loading...
Upcoming Passes
Passes for default location (London). Set your location on the main map for personalized predictions.
Altitude History
Loading altitude history...
No altitude history available
Two-Line Element Set
1 53651U 22105D 26126.58335648 .00485616 00000-0 15426-1 0 9998
2 53651 97.6037 9.1275 0001775 78.1353 300.0827 15.30542393 5308
Epoch: May 6, 2026 •
Age: 7 hours
Current Status
Altitude 489.3 km
Velocity 7.62 km/s
Sub-Earth Point -38.97°S,
1.26°E
Launch Date Aug 31, 2022
Age 3.6 years
Type internet
Launch Group
Falcon 9 •
Group 3-4 •
41 satellites
Starlink 4622
53648
Starlink 4386 53649
Starlink 4380 53650
Starlink 4374 53652
Starlink 4390 53653
Starlink 4420 53654
Starlink 4470 53655
Starlink 4466 53656
Starlink 4452 53658
Starlink 4473 53660
Starlink 4472 53661
Starlink 4357 53662
Starlink 4457 53663
Starlink 4471 53664
Starlink 4334 53665
Starlink 4406 53667
Starlink 4458 53668
Starlink 4464 53669
Starlink 4459 53670
Starlink 4440 53671
...and 20 more
Technical Details
Classification Payload
Mass 300.00 kg
Dry Mass 290.00 kg
Total Mass 300.00 kg
Length 0.20 m
Diameter 2.80 m
Span 9.00 m
Shape Box + pan
Manufacturer SPXS
Bus Type Starlink
Phase Status In Orbit
Owner/State SPXS/US
Most Searched
Loading...